Temp
-0 -0 -1 -1 -1 -1 -2 -2 -3 -3 -4 -4 -5 -5 -6 -6 -6 -7 -7 -7 -7 -7 -7 -7 -6 -7 -7 -6 -7 -7 -7 -8 -7 -4 -6 -7 -7 -7 -7 -7 -7 -6 -6
-1 -1 -1 -1 -2 -2 -3 -3 -4 -5 -5 -6 -6 -7 -7 -7 -7 -7 -7 -7 -8 -7 -7 -7 -7 -7 -7 -8 -8 -8 -8 -8 -8 -7 -7 -7 -7 -7 -7 -7 -7 -7 -6
-2 -2 -2 -3 -3 -4 -4 -5 -5 -6 -6 -6 -7 -7 -7 -7 -8 -8 -8 -8 -8 -8 -8 -8 -8 -8 -8 -9 -9 -9 -9 -9 -9 -8 -8 -8 -8 -8 -8 -8 -8 -7 -7
-3 -3 -3 -4 -4 -5 -5 -6 -6 -7 -7 -7 -7 -8 -8 -8 -8 -8 -8 -8 -8 -8 -9 -9 -9 -9 -9 -10 -9 -9 -9 -9 -9 -9 -9 -9 -9 -8 -9 -8 -8 -9 -8
-3 -4 -4 -5 -5 -6 -6 -7 -7 -7 -7 -8 -8 -8 -8 -8 -8 -9 -9 -9 -9 -9 -10 -10 -10 -10 -10 -10 -10 -10 -10 -10 -9 -9 -9 -9 -9 -8 -8 -8 -9 -8 -8
-4 -5 -5 -6 -6 -7 -7 -7 -7 -8 -8 -8 -8 -8 -9 -9 -9 -10 -10 -10 -10 -11 -11 -11 -11 -11 -11 -11 -10 -10 -10 -10 -10 -10 -10 -9 -9 -9 -8 -8 -9 -8 -8
-5 -6 -6 -7 -7 -7 -8 -8 -8 -8 -8 -8 -9 -9 -9 -9 -10 -10 -11 -11 -11 -11 -11 -11 -11 -11 -11 -11 -11 -11 -10 -10 -10 -10 -10 -10 -9 -9 -9 -9 -8 -8 -8
-6 -7 -7 -7 -7 -8 -8 -8 -9 -9 -9 -9 -9 -10 -10 -10 -11 -11 -11 -11 -11 -11 -11 -11 -11 -11 -11 -11 -11 -11 -10 -10 -10 -10 -10 -9 -10 -9 -8 -8 -8 -8 -8
-7 -7 -7 -8 -8 -8 -9 -9 -9 -9 -9 -9 -10 -10 -11 -11 -11 -11 -11 -12 -11 -12 -12 -11 -11 -11 -11 -11 -12 -11 -11 -10 -10 -10 -10 -10 -9 -9 -8 -9 -9 -9 -8
-7 -8 -8 -9 -9 -9 -9 -9 -9 -10 -10 -10 -10 -11 -11 -11 -11 -12 -12 -12 -12 -12 -12 -12 -12 -12 -13 -12 -12 -12 -11 -10 -10 -10 -10 -9 -8 -8 -8 -8 -9 -9 -9
-8 -8 -9 -9 -9 -10 -10 -10 -10 -10 -10 -11 -11 -12 -12 -12 -11 -12 -12 -12 -12 -12 -12 -12 -12 -13 -13 -12 -12 -11 -10 -10 -10 -10 -10 -9 -9 -8 -8 -9 -9 -9 -9
-9 -9 -9 -9 -10 -10 -10 -10 -10 -11 -11 -11 -12 -11 -12 -12 -12 -12 -12 -12 -12 -13 -12 -13 -13 -13 -13 -12 -11 -10 -10 -10 -10 -10 -10 -10 -9 -9 -9 -9 -9 -10 -10
-9 -9 -9 -9 -10 -10 -10 -10 -10 -11 -11 -12 -12 -12 -11 -12 -12 -13 -13 -13 -13 -13 -13 -13 -13 -12 -12 -11 -11 -10 -10 -10 -10 -10 -10 -10 -10 -10 -9 -10 -10 -10 -10
-9 -9 -9 -10 -10 -10 -10 -11 -11 -11 -12 -12 -12 -12 -12 -12 -12 -12 -13 -13 -13 -13 -13 -13 -12 -12 -11 -11 -11 -11 -11 -10 -10 -10 -10 -10 -10 -10 -10 -10 -10 -10 -11
-9 -9 -10 -10 -10 -10 -10 -11 -11 -12 -12 -13 -13 -13 -13 -12 -13 -13 -13 -13 -13 -13 -13 -12 -12 -11 -11 -11 -11 -11 -10 -10 -10 -10 -10 -10 -10 -9 -9 -10 -10 -10 -10
-10 -10 -10 -10 -10 -10 -10 -11 -12 -12 -12 -13 -12 -13 -13 -13 -13 -13 -13 -13 -12 -12 -12 -12 -12 -11 -11 -11 -11 -10 -10 -10 -10 -9 -9 -10 -10 -9 -10 -10 -10 -10 -10
-10 -10 -10 -10 -10 -10 -11 -11 -11 -12 -12 -12 -12 -12 -12 -12 -12 -12 -12 -12 -12 -12 -12 -12 -12 -11 -10 -10 -10 -10 -10 -10 -10 -9 -10 -10 -10 -9 -9 -9 -9 -9 -9
-10 -10 -10 -10 -10 -11 -11 -11 -12 -12 -12 -12 -12 -12 -12 -12 -12 -12 -12 -12 -11 -12 -12 -11 -11 -11 -10 -10 -10 -9 -10 -10 -9 -10 -10 -9 -9 -9 -9 -8 -8 -8 -8
-10 -10 -10 -10 -11 -11 -11 -12 -12 -12 -12 -12 -12 -12 -11 -12 -12 -12 -12 -11 -11 -11 -11 -11 -11 -10 -10 -10 -10 -10 -10 -9 -9 -9 -9 -9 -9 -9 -8 -8 -7 -8 -8
-10 -10 -10 -10 -11 -11 -12 -12 -12 -12 -12 -12 -12 -11 -12 -12 -12 -11 -11 -11 -11 -10 -10 -11 -10 -10 -10 -10 -10 -10 -9 -9 -10 -9 -9 -9 -9 -8 -8 -8 -7 -7 -7
-10 -10 -10 -11 -11 -11 -12 -12 -12 -12 -12 -12 -12 -12 -12 -12 -12 -11 -11 -10 -10 -10 -10 -10 -10 -10 -9 -9 -9 -9 -9 -9 -9 -9 -9 -9 -9 -9 -8 -8 -8 -7 -7
-11 -10 -10 -11 -11 -12 -12 -12 -12 -12 -12 -12 -12 -12 -12 -12 -11 -11 -10 -10 -9 -9 -9 -9 -9 -9 -9 -9 -9 -9 -9 -9 -9 -9 -9 -9 -9 -9 -8 -8 -8 -8 -7
-11 -10 -11 -11 -11 -12 -12 -12 -12 -12 -12 -12 -12 -12 -12 -11 -11 -10 -10 -9 -9 -8 -8 -8 -9 -9 -9 -9 -9 -8 -9 -9 -9 -9 -9 -8 -8 -8 -8 -8 -8 -8 -8
-11 -11 -11 -11 -11 -12 -12 -12 -12 -12 -12 -12 -12 -12 -11 -11 -11 -10 -10 -9 -8 -8 -8 -8 -8 -8 -8 -8 -8 -8 -8 -8 -8 -8 -8 -8 -8 -8 -8 -8 -8 -8 -8
-11 -11 -11 -11 -12 -12 -12 -12 -12 -12 -12 -12 -12 -12 -11 -11 -10 -9 -9 -8 -8 -7 -7 -8 -8 -8 -8 -8 -8 -8 -8 -8 -8 -8 -8 -8 -8 -8 -8 -8 -8 -8 -8
-11 -11 -11 -12 -12 -12 -12 -12 -12 -12 -12 -12 -12 -11 -11 -10 -9 -9 -8 -7 -7 -7 -7 -7 -7 -7 -7 -7 -8 -8 -8 -8 -8 -8 -8 -8 -8 -7 -7 -7 -7 -7 -7
Height
3100 3097 3093 3088 3083 3078 3073 3068 3063 3059 3053 3048 3043 3039 3033 3029 3024 3020 3016 3012 3007 3004 3001 2997 2993 2991 2988 2985 2983 2981 2979 2976 2972 2979 2973 2975 2976 2977 2978 2977 2976 2977 2979
3090 3086 3083 3077 3072 3067 3062 3057 3052 3047 3042 3037 3032 3028 3023 3018 3013 3007 3003 2999 2994 2990 2986 2982 2980 2977 2974 2972 2970 2969 2968 2967 2965 2964 2964 2965 2965 2966 2967 2967 2967 2966 2967
3079 3075 3070 3065 3060 3056 3051 3047 3043 3037 3032 3027 3021 3015 3011 3005 3000 2995 2991 2986 2980 2977 2973 2969 2967 2964 2962 2960 2959 2958 2958 2956 2955 2953 2953 2955 2955 2956 2956 2956 2956 2957 2958
3071 3065 3059 3054 3050 3046 3041 3036 3031 3026 3021 3016 3010 3004 2998 2993 2988 2983 2977 2972 2968 2965 2961 2957 2955 2953 2951 2950 2949 2949 2949 2947 2946 2944 2942 2943 2945 2948 2946 2947 2948 2947 2949
3061 3057 3051 3046 3041 3036 3032 3027 3022 3016 3010 3004 2998 2992 2987 2981 2976 2971 2966 2960 2956 2952 2949 2947 2945 2943 2942 2942 2941 2940 2939 2936 2934 2933 2931 2932 2932 2935 2936 2937 2936 2938 2940
3050 3046 3042 3037 3033 3028 3023 3017 3011 3006 3000 2994 2988 2982 2976 2971 2965 2960 2954 2949 2945 2942 2939 2937 2936 2934 2933 2932 2931 2930 2929 2927 2924 2921 2920 2919 2920 2922 2925 2926 2925 2926 2929
3044 3039 3034 3029 3024 3019 3013 3007 3002 2996 2991 2985 2978 2971 2965 2960 2954 2949 2945 2941 2937 2934 2931 2929 2926 2925 2923 2920 2920 2918 2917 2916 2914 2912 2908 2907 2907 2911 2913 2914 2916 2918 2920
3035 3031 3026 3021 3016 3011 3005 2999 2993 2987 2981 2974 2968 2962 2954 2949 2944 2940 2937 2934 2930 2927 2924 2921 2918 2915 2913 2910 2908 2906 2904 2903 2902 2900 2898 2898 2897 2899 2899 2902 2905 2907 2910
3028 3023 3018 3013 3008 3002 2996 2990 2985 2978 2972 2965 2958 2951 2945 2941 2937 2934 2930 2926 2922 2919 2915 2912 2909 2905 2903 2900 2897 2894 2892 2891 2891 2890 2889 2886 2885 2887 2888 2890 2893 2897 2900
3021 3016 3011 3005 3000 2994 2988 2982 2976 2969 2962 2955 2949 2943 2938 2934 2931 2927 2924 2919 2915 2911 2908 2904 2901 2895 2890 2889 2886 2883 2882 2882 2881 2880 2879 2875 2870 2872 2879 2881 2884 2887 2891
3014 3009 3004 2999 2993 2986 2980 2974 2967 2960 2953 2948 2942 2937 2932 2928 2924 2920 2917 2913 2908 2903 2898 2895 2890 2883 2879 2877 2875 2874 2876 2875 2874 2872 2872 2869 2866 2865 2869 2875 2877 2881 2883
3008 3003 2998 2992 2986 2980 2974 2967 2960 2952 2946 2940 2934 2930 2926 2922 2918 2914 2910 2906 2902 2896 2892 2887 2880 2874 2870 2867 2866 2868 2869 2868 2868 2867 2866 2866 2865 2866 2867 2869 2871 2873 2876
3002 2997 2991 2985 2979 2973 2967 2959 2953 2945 2938 2932 2927 2923 2920 2916 2912 2908 2903 2900 2895 2889 2883 2877 2871 2867 2865 2864 2865 2864 2864 2864 2863 2863 2862 2862 2861 2861 2862 2863 2864 2866 2867
2995 2990 2985 2979 2973 2967 2960 2953 2946 2939 2932 2925 2920 2916 2912 2909 2906 2902 2897 2892 2887 2882 2875 2871 2866 2863 2862 2861 2861 2860 2859 2859 2859 2859 2858 2857 2856 2856 2857 2857 2858 2859 2861
2990 2984 2979 2973 2967 2961 2954 2946 2939 2932 2925 2919 2914 2910 2906 2903 2899 2896 2891 2885 2879 2874 2868 2863 2860 2858 2858 2858 2857 2856 2856 2857 2856 2854 2853 2852 2851 2850 2851 2852 2852 2853 2854
2983 2978 2973 2967 2961 2954 2947 2941 2935 2927 2921 2915 2910 2905 2902 2898 2893 2889 2884 2878 2872 2866 2862 2857 2855 2854 2854 2853 2853 2852 2852 2853 2852 2850 2848 2848 2847 2846 2846 2845 2845 2845 2847
2977 2972 2967 2962 2955 2948 2941 2934 2927 2923 2916 2910 2905 2900 2896 2892 2887 2883 2877 2871 2866 2861 2857 2853 2851 2850 2850 2850 2849 2848 2849 2849 2848 2847 2846 2846 2845 2842 2842 2840 2839 2839 2841
2972 2968 2963 2956 2950 2943 2936 2929 2922 2915 2910 2906 2901 2896 2892 2887 2882 2877 2872 2866 2862 2857 2852 2849 2847 2846 2846 2847 2847 2847 2848 2847 2846 2846 2846 2844 2842 2840 2837 2834 2832 2833 2836
2968 2963 2958 2952 2945 2938 2931 2925 2918 2913 2907 2901 2897 2894 2888 2883 2878 2872 2867 2862 2857 2852 2848 2844 2842 2842 2842 2844 2845 2845 2846 2845 2846 2846 2846 2845 2842 2839 2836 2831 2828 2827 2829
2964 2959 2954 2947 2941 2934 2928 2921 2915 2909 2904 2899 2894 2889 2884 2879 2874 2869 2864 2858 2853 2848 2843 2840 2838 2837 2839 2841 2842 2844 2845 2846 2847 2848 2847 2845 2843 2840 2838 2835 2832 2829 2831
2960 2955 2950 2943 2937 2931 2924 2917 2911 2906 2901 2897 2892 2886 2881 2875 2870 2865 2860 2855 2849 2844 2840 2836 2834 2834 2835 2837 2840 2843 2844 2846 2848 2848 2848 2848 2846 2844 2842 2841 2839 2838 2839
2956 2952 2946 2940 2934 2927 2920 2915 2909 2904 2899 2895 2890 2885 2880 2874 2869 2863 2858 2852 2847 2841 2837 2833 2831 2830 2832 2834 2838 2841 2844 2846 2848 2849 2850 2851 2850 2849 2849 2848 2847 2847 2846
2953 2948 2943 2937 2930 2924 2918 2913 2907 2902 2898 2893 2888 2883 2877 2872 2867 2861 2855 2850 2845 2840 2836 2832 2830 2828 2830 2832 2836 2840 2843 2845 2849 2851 2852 2853 2852 2853 2853 2853 2854 2855 2855
2950 2945 2940 2934 2927 2921 2916 2911 2906 2901 2897 2892 2887 2881 2875 2870 2865 2860 2854 2849 2844 2840 2836 2832 2829 2828 2829 2831 2835 2839 2842 2845 2849 2852 2854 2855 2855 2856 2856 2858 2859 2860 2861
2948 2942 2937 2931 2925 2920 2915 2910 2905 2901 2896 2891 2885 2880 2874 2869 2864 2859 2855 2850 2845 2841 2837 2833 2830 2828 2829 2831 2834 2838 2842 2846 2850 2853 2855 2856 2858 2859 2860 2862 2863 2865 2866
2946 2941 2935 2929 2923 2919 2914 2909 2905 2900 2895 2889 2884 2879 2874 2869 2864 2860 2855 2850 2846 2842 2838 2835 2832 2830 2830 2832 2834 2838 2842 2846 2849 2853 2856 2858 2860 2862 2864 2865 2867 2869 2871
Wind_Speed
31 33 36 41 43 43 42 43 44 44 44 45 46 47 47 47 46 46 46 46 45 44 43 43 43 43 44 44 43 43 42 41 43 38 38 35 32 28 26 28 31 33 36
35 39 42 42 40 40 41 40 41 42 41 42 42 43 44 45 45 46 46 44 43 44 44 44 44 43 44 42 41 39 36 35 36 37 37 36 34 32 30 30 31 32 32
42 44 41 38 38 38 37 37 37 38 40 41 43 44 44 44 45 44 43 43 44 44 44 44 43 41 40 37 34 33 31 31 32 33 31 27 26 24 25 29 30 31 30
43 39 38 37 36 35 35 36 38 40 42 43 43 43 43 43 43 43 43 43 43 43 42 40 38 35 32 30 28 27 26 27 34 39 39 36 28 23 26 24 25 24 25
37 36 35 35 35 35 36 38 40 41 40 40 40 41 42 42 43 43 42 42 40 38 34 32 30 29 27 28 30 31 34 37 38 38 41 37 36 31 32 25 29 28 24
36 34 33 33 34 35 37 39 39 37 38 40 41 42 42 41 41 39 38 37 33 31 30 28 28 29 29 29 30 31 32 35 38 40 41 42 38 38 33 30 28 29 28
32 32 32 32 34 35 36 36 36 37 39 41 41 41 41 40 37 33 29 27 26 28 30 31 31 30 29 32 32 33 35 38 41 43 45 45 45 41 38 36 34 30 29
31 31 31 32 32 33 35 35 35 37 39 40 40 39 39 34 28 25 24 25 26 26 25 26 30 31 30 35 37 38 39 37 35 33 35 38 41 35 35 32 31 32 27
30 29 30 30 31 34 35 35 36 37 39 39 38 38 34 27 24 23 24 25 23 27 29 31 28 35 35 36 39 40 36 28 25 29 33 38 38 36 33 29 30 34 31
28 29 29 31 34 36 35 35 36 38 39 38 38 34 29 25 24 24 24 22 29 31 29 31 34 39 38 33 32 34 27 23 26 27 26 29 34 35 25 23 22 27 26
28 28 31 32 35 34 34 35 37 38 39 37 36 28 25 25 25 25 23 22 28 29 31 33 35 34 31 28 27 26 18 18 19 20 19 18 11 19 21 22 21 24 25
27 29 31 33 32 33 34 36 37 38 37 37 32 25 23 23 24 24 22 21 23 25 33 37 32 25 24 21 18 12 12 16 17 15 15 13 12 13 16 21 26 28 28
28 30 31 31 31 33 35 37 37 37 37 35 28 24 23 23 24 23 24 23 29 31 34 37 29 19 7 3 6 9 13 14 14 13 12 12 14 15 17 19 21 24 25
29 30 30 31 31 33 35 35 36 35 35 29 26 25 25 25 26 25 25 31 33 32 36 34 21 11 9 5 11 12 15 14 13 13 15 14 15 18 18 19 20 19 21
28 29 29 30 32 34 34 36 35 35 29 29 26 25 26 27 27 26 26 28 30 31 34 26 16 11 12 13 15 18 18 15 14 17 13 11 11 11 16 19 20 21 21
28 27 29 29 32 34 36 34 33 30 27 26 23 23 24 25 26 25 28 29 30 28 23 17 11 11 11 13 14 16 15 12 14 15 10 9 8 11 14 15 18 20 21
26 27 27 30 33 35 35 35 35 26 26 25 23 21 21 23 24 26 28 27 24 22 19 15 11 10 11 10 10 8 8 9 9 4 3 5 9 10 7 10 12 16 17
26 26 27 31 33 34 33 35 33 30 28 24 21 20 19 22 24 24 24 23 23 21 19 15 11 10 11 9 7 6 4 5 6 3 4 4 4 6 11 7 16 19 16
25 25 28 31 32 33 34 34 30 28 27 25 21 19 20 22 21 21 22 23 24 22 19 14 11 9 10 9 7 6 3 5 4 3 4 9 9 6 14 17 4 4 18
23 26 29 31 33 32 34 31 29 27 25 23 23 21 22 20 21 21 23 25 25 23 20 14 10 8 10 11 10 9 7 10 10 9 3 2 5 9 13 18 19 16 20
23 26 29 30 31 32 32 29 28 25 23 22 22 22 22 23 24 24 26 26 26 26 23 16 8 8 11 13 12 12 11 12 10 9 5 4 7 9 12 18 20 20 18
23 26 29 30 30 31 29 28 26 23 22 21 21 21 21 22 23 25 26 25 25 24 22 16 9 5 11 14 15 15 14 16 10 11 6 6 6 8 11 13 14 17 18
23 26 28 29 31 29 26 25 22 22 21 21 22 22 22 23 24 24 25 25 22 20 19 15 9 3 10 15 16 17 18 20 16 8 5 7 8 6 10 11 12 15 16
24 27 28 29 30 27 25 21 21 21 23 21 22 22 23 23 24 23 24 22 19 18 17 14 10 3 8 14 17 18 19 18 16 11 8 6 8 8 8 10 12 13 13
24 26 27 30 27 24 22 20 21 22 22 21 21 22 23 23 22 22 21 20 19 20 15 15 11 4 7 13 18 19 20 19 19 15 10 9 9 8 10 10 11 12 11
23 25 28 29 25 23 21 21 21 23 23 21 22 22 23 23 22 20 19 20 20 19 15 15 12 6 6 12 17 20 22 20 18 16 12 12 13 11 11 13 12 12 12
Wind_Direction
283 287 292 297 298 295 293 292 293 294 293 295 296 297 297 296 296 295 294 294 293 291 289 288 288 288 286 286 285 283 280 280 280 281 280 280 280 280 270 264 261 258 255
294 299 303 302 298 295 296 296 295 296 296 297 298 298 298 297 296 295 294 295 293 291 290 289 288 286 285 284 283 282 281 279 280 280 278 279 278 273 270 263 261 259 257
307 308 305 302 301 300 297 298 300 301 302 301 300 299 298 297 295 295 295 293 291 289 289 289 289 288 285 284 283 282 282 284 284 283 286 287 282 278 272 262 257 257 258
305 304 304 303 302 302 304 305 306 305 304 302 301 301 299 299 298 296 294 292 291 290 290 289 288 285 284 284 284 286 285 286 290 286 292 283 279 279 274 274 259 251 249
304 303 303 305 307 308 307 305 305 305 305 305 305 303 301 299 297 296 295 294 294 293 291 289 288 286 287 286 285 285 284 280 282 284 280 285 277 276 269 271 260 256 250
306 307 307 307 306 306 306 306 307 308 307 307 305 304 302 301 300 299 298 297 296 295 294 290 288 285 280 276 274 268 270 271 272 276 282 280 281 275 271 267 261 254 256
306 307 308 308 307 307 309 310 309 307 307 307 307 307 306 305 303 300 299 299 298 292 289 289 288 285 282 282 280 275 271 271 272 275 274 273 274 274 270 269 262 256 253
309 310 310 309 310 313 313 311 309 309 310 311 311 310 310 309 305 303 303 298 295 295 297 287 290 288 280 283 287 282 281 280 274 269 269 268 271 265 263 264 260 259 249
311 312 310 313 316 316 314 312 312 314 313 315 316 316 313 310 306 308 310 308 305 296 289 288 287 290 288 284 284 282 283 279 269 271 273 273 267 263 263 257 246 246 253
313 315 316 316 317 317 315 315 318 317 317 318 318 316 311 310 311 314 311 304 295 298 293 292 291 292 290 284 278 280 276 274 277 273 273 285 275 252 239 247 242 246 250
319 319 318 316 317 318 318 321 318 319 319 317 318 313 310 313 318 319 313 308 304 308 306 308 309 302 296 289 275 269 269 274 280 283 287 284 264 216 221 243 243 258 260
320 319 318 319 321 320 322 321 322 320 319 320 316 312 312 316 320 322 322 312 307 303 298 307 311 306 294 287 266 249 274 272 272 282 276 272 259 253 244 242 244 244 248
321 322 321 321 322 323 323 324 323 321 322 319 315 313 315 318 323 322 327 325 317 313 313 319 316 309 306 293 289 259 259 267 277 277 278 265 260 252 248 247 247 249 246
321 322 321 322 323 325 325 325 324 324 322 321 317 315 315 319 320 322 322 315 310 312 312 317 311 280 250 256 241 260 262 270 275 280 283 278 265 254 250 253 247 244 241
321 322 323 324 325 327 327 329 329 328 328 323 317 312 313 316 317 321 310 308 305 306 307 312 299 266 254 256 258 250 258 277 277 281 278 278 273 265 245 246 247 243 244
323 324 325 326 328 328 331 331 331 329 329 326 318 310 308 308 310 313 314 312 315 317 320 316 296 260 256 260 272 267 263 270 278 287 260 261 263 277 273 263 246 240 238
326 327 328 329 330 332 333 332 334 334 333 330 325 317 313 312 316 315 316 320 324 326 326 321 304 264 258 267 283 261 237 261 277 228 307 276 286 277 266 262 255 230 221
328 329 330 332 332 333 333 336 336 334 335 339 335 332 327 323 321 323 325 330 331 329 326 317 302 264 249 254 268 228 231 261 214 239 293 307 320 310 309 281 244 236 223
329 329 332 333 333 335 338 338 335 335 337 341 341 339 330 329 331 335 335 335 336 337 334 320 295 265 236 231 235 200 186 175 161 144 83 60 7 24 34 24 109 155 208
329 331 334 335 336 338 339 338 336 338 341 344 343 341 338 342 344 343 342 342 341 342 342 333 297 257 222 212 211 191 159 147 122 135 123 325 45 54 50 66 61 106 113
330 334 335 336 338 339 339 339 338 342 344 347 344 344 346 346 347 346 346 344 344 344 344 342 310 247 211 200 198 187 172 167 152 163 198 46 45 58 64 64 60 86 91
333 335 336 338 340 340 341 341 342 346 348 347 347 348 349 348 349 348 347 346 346 345 348 350 332 256 203 194 192 185 178 171 173 193 193 112 73 88 101 85 79 73 73
336 337 338 341 342 343 343 344 348 351 353 350 350 351 352 353 353 351 351 349 350 354 359 359 352 326 197 190 187 184 178 180 192 198 159 109 99 107 114 112 97 91 88
340 339 342 344 344 346 347 350 353 354 352 351 351 352 352 354 355 357 357 357 2 4 9 7 7 10 183 186 183 182 179 181 184 187 162 141 121 135 126 123 119 105 106
342 343 345 346 347 349 352 356 357 353 356 353 353 353 355 357 358 2 4 8 8 6 13 14 15 35 170 181 181 180 179 174 171 172 163 147 137 137 141 140 130 118 122
346 347 348 350 351 353 358 1 358 358 0 358 356 356 359 360 4 6 8 14 14 13 14 19 20 48 153 175 179 178 178 173 167 167 161 151 147 144 141 145 142 135 138